Flag for U.S.A. Weather past 2 weeks in Urbana, Illinois, U.S.A.

Now
44 °F

Fog.


Feels Like: 37 °F
Forecast: 31 / 44 °F
Wind: 16 mph from Southeast

Location: University Of Illinois-Willard Airport

Current Time: Dec 22, 2014 at 4:18:54 PM

Latest Report: Dec 22, 2014 at 3:53 PM


Visibility: 3 mi

Pressure: 29.65 "Hg

Humidity: 93%

Dew point: 42 °F

Location of UrbanaLocation

Historic Weather in Urbana — Graph

°F

Urbana temperature yesterday

Maximum temperature yesterday: 39 °F (at 2:53 PM)
Minimum temperature yesterday: 29 °F (at 11:53 PM)
Average temperature yesterday: 33 °F

Past Weeks' High & Low Weather Summary

 TemperatureHumidityPressure
High49 °F (Dec 13, 12:53 PM)97% (Dec 8, 11:53 AM)30.47 "Hg (Dec 8, 11:53 AM)
Low16 °F (Dec 19, 5:53 AM)66% (Dec 19, 12:53 PM)29.67 "Hg (Dec 22, 2:53 PM)
Average34 °F86%30.20 "Hg
* Reported Dec 7 2:53 PM — Dec 22 2:53 PM, Urbana, Weather by CustomWeather, © 2014

Note: Actual official high and low records may vary slightly from our data, if they occured in-between our weather recording intervals... More about our weather records

Advertising

Urbana weather history for previous 24 hours

 ConditionsComfort  
Time TempWeatherWind HumidityBarometerVisibility
2:53 PM
Dec 22
43 °FLight rain. Fog.14 mph97%29.67 "Hg2 mi
1:53 PM42 °FLight rain. Fog.15 mph92%29.69 "Hg1 mi
12:53 PM40 °FLight rain. Fog.15 mph97%29.72 "Hg1 mi
11:53 AM38 °FLight rain. Fog.15 mph93%29.77 "Hg1 mi
10:53 AM37 °FLight rain. Fog.17 mph93%29.81 "Hg2 mi
9:53 AM35 °FLight rain. Fog.17 mph92%29.85 "Hg3 mi
8:53 AM34 °FLight rain. Fog.16 mph88%29.87 "Hg4 mi
7:53 AM34 °FLight rain. Fog.14 mph85%29.89 "Hg4 mi
6:53 AM33 °FOvercast.10 mph88%29.91 "Hg7 mi
5:53 AM33 °FOvercast.13 mph85%29.93 "Hg7 mi
4:53 AM32 °FIce fog.12 mph88%29.93 "Hg6 mi
3:53 AM32 °FIce fog.10 mph88%29.96 "Hg6 mi
2:53 AM32 °FIce fog.10 mph85%29.97 "Hg6 mi
1:53 AM31 °FIce fog.13 mph89%29.99 "Hg6 mi
12:53 AM30 °FIce fog.12 mph89%29.99 "Hg5 mi
11:53 PM
Dec 21
29 °FIce fog.8 mph93%30.02 "Hg5 mi
10:53 PM30 °FIce fog.9 mph89%30.03 "Hg5 mi
9:53 PM31 °FIce fog.10 mph89%30.06 "Hg5 mi
8:53 PM31 °FIce fog.10 mph89%30.06 "Hg6 mi
7:53 PM31 °FIce fog.10 mph89%30.08 "Hg6 mi
6:53 PM31 °FClear.8 mph89%30.09 "Hg7 mi
5:53 PM32 °FPassing clouds.8 mph85%30.10 "Hg8 mi
4:53 PM34 °FClear.8 mph79%30.10 "Hg10 mi
Weather by CustomWeather, © 2014

See weather overviewHow to use our weather pages